Location: Madrid
(40.4000°N, 3.6830°W)
Time: 01:02:15
(UTC+02:00)

ISS - Pass Details

Date: 19 July 2019
Orbit: 409 x 418 km, 51.6° (Epoch: 23 July)

Event Time Altitude Azimuth Distance (km) Brightness Sun altitude
Rises 22:09:11 0° 224° (SW) 2,344 0.2 -5.4°
Reaches altitude 10° 22:11:17 10° 221° (SW) 1,483 -0.9 -5.7°
Maximum altitude 22:14:34 62° 140° (SE) 469 -3.8 -6.2°
Drops below altitude 10° 22:17:52 10° 59° (ENE) 1,487 -1.2 -6.7°
Sets 22:19:59 0° 56° (NE) 2,350 -0.2 -7.1°
